Weather History for Lapeer, MI

Change the Weather History Date:

Wednesday, September 25, 2013

  Actual Average (KFNT) Record (KFNT)
Temperature  
Mean Temperature 53 °F 57 °F  
Max Temperature 72 °F 69 °F 86 °F (1935)
Min Temperature 34 °F 46 °F 30 °F (1947)
Degree Days  
Heating Degree Days 12 8  
Month to date heating degree days 117  
Since 1 July heating degree days 161  
Cooling Degree Days 0 1  
Month to date cooling degree days 44  
Year to date cooling degree days 521  
Growing Degree Days 3 (Base 50)    
Moisture  
Dew Point 43 °F    
Average Humidity 77    
Maximum Humidity 100    
Minimum Humidity 35    
Precipitation  
Precipitation 0.00 in 0.12 in 2.62 in (1933)
Month to date precipitation 3.17  
Year to date precipitation 23.73  
Snow  
Snow 0.00 in 0.00 in 0.00 in ()
Month to date snowfall 0.0  
Since 1 July snowfall 0.0  
Since 1 September snowfall 0.0  
Snow Depth -    
Sea Level Pressure  
Sea Level Pressure 30.01 in    
Wind  
Wind Speed 1 mph (East)    
Max Wind Speed 6 mph    
Max Gust Speed -    
Visibility 7 miles    
Events Fog    
T = Trace of Precipitation, MM = Missing Value Source: NWS Daily Summary

Daily Weather History Graph

Daily Weather History Graph

Search for Another Location

Airport:

Trip Planner

Search our weather history database for the weather conditions in past years. The results will help you decide how hot, cold, wet, or windy it might be!

Date:

Astronomy

Sep. 25, 2013 Rise Set
Actual Time 7:23 AM EDT 7:24 PM EDT
Civil Twilight 6:55 AM EDT 7:52 PM EDT
Nautical Twilight 6:22 AM EDT 8:25 PM EDT
Astronomical Twilight 5:48 AM EDT 8:59 PM EDT
Moon 11:22 PM EDT (9/25) 1:36 PM EDT (9/25)
Length of Visible Light 12h 57m
Length of Day
12h 00m
Waning Gibbous, 64% of the Moon is Illuminated
Sep 25
Waning Gibbous
Sep 26
Last Quarter
Oct 4
New
Oct 11
First Quarter
Oct 18
Full

Hourly Weather History & Observations

Time (EDT) Temp. Dew Point Humidity Pressure Visibility Wind Dir Wind Speed Gust Speed Precip Events Conditions
12:13 AM 39.9 °F 39.6 °F 99% 30.03 in 1.2 mi Calm Calm - N/A   Mist
12:33 AM 38.7 °F 38.3 °F 99% 30.03 in 7.0 mi Calm Calm - N/A   Clear
12:54 AM 38.3 °F 37.6 °F 97% 30.03 in 10.0 mi Calm Calm - N/A   Clear
1:13 AM 38.5 °F 38.3 °F 99% 30.03 in 7.0 mi Calm Calm - N/A   Clear
1:33 AM 37.9 °F 37.4 °F 98% 30.03 in 10.0 mi Calm Calm - N/A   Clear
1:54 AM 37.0 °F 36.3 °F 97% 30.03 in 7.0 mi Calm Calm - N/A   Clear
2:13 AM 38.1 °F 38.1 °F 100% 30.03 in 4.0 mi Calm Calm - N/A   Clear
2:33 AM 36.7 °F 36.3 °F 99% 30.02 in 1.0 mi Calm Calm - N/A   Mist
2:53 AM 37.6 °F 37.4 °F 99% 30.02 in 7.0 mi Calm Calm - N/A   Clear
3:13 AM 37.8 °F 37.6 °F 99% 30.01 in 2.0 mi Calm Calm - N/A   Clear
3:33 AM 36.9 °F 36.7 °F 99% 30.01 in 4.0 mi Calm Calm - N/A   Clear
3:53 AM 36.9 °F 36.7 °F 99% 30.01 in 4.0 mi Calm Calm - N/A   Clear
4:13 AM 35.6 °F 35.4 °F 99% 30.01 in 10.0 mi Calm Calm - N/A   Clear
4:34 AM 35.6 °F 35.6 °F 100% 30.01 in 10.0 mi Calm Calm - N/A   Clear
4:53 AM 34.3 °F 34.2 °F 99% 30.01 in 4.0 mi Calm Calm - N/A   Clear
5:13 AM 34.9 °F 34.7 °F 99% 30.01 in 7.0 mi Calm Calm - N/A   Clear
5:34 AM 35.4 °F 35.4 °F 100% 30.02 in 10.0 mi Calm Calm - N/A   Clear
5:53 AM 35.1 °F 35.1 °F 100% 30.02 in 10.0 mi Calm Calm - N/A   Mostly Cloudy
6:13 AM 36.5 °F 36.5 °F 100% 30.01 in 0.2 mi Calm Calm - N/A Fog Fog
6:34 AM 36.5 °F 36.5 °F 100% 30.01 in 0.5 mi Calm Calm - N/A Fog Fog
6:53 AM 36.5 °F 36.5 °F 100% 30.01 in 0.5 mi Calm Calm - N/A Fog Fog
7:13 AM 36.1 °F 36.1 °F 100% 30.02 in 0.8 mi Calm Calm - N/A   Overcast
7:34 AM 37.6 °F 37.6 °F 100% 30.02 in 0.2 mi Calm Calm - N/A Fog Fog
7:53 AM 37.8 °F 37.8 °F 100% 30.02 in 0.2 mi Calm Calm - N/A Fog Fog
8:13 AM 39.2 °F 39.2 °F 100% 30.03 in 0.2 mi Calm Calm - N/A Fog Fog
8:34 AM 41.9 °F 41.9 °F 100% 30.03 in 0.2 mi Calm Calm - N/A Fog Fog
8:53 AM 43.2 °F 43.2 °F 100% 30.03 in 0.2 mi Calm Calm - N/A Fog Fog
9:13 AM 44.6 °F 44.6 °F 100% 30.03 in 0.2 mi Calm Calm - N/A Fog Fog
9:33 AM 45.9 °F 45.7 °F 99% 30.03 in 0.2 mi Calm Calm - N/A Fog Fog
9:53 AM 47.8 °F 47.7 °F 99% 30.03 in 0.5 mi Calm Calm - N/A Fog Fog
10:14 AM 50.0 °F 50.0 °F 100% 30.03 in 2.5 mi Calm Calm - N/A   Overcast
10:33 AM 54.7 °F 52.2 °F 91% 30.03 in 10.0 mi Calm Calm - N/A   Scattered Clouds
10:53 AM 58.3 °F 53.8 °F 85% 30.02 in 10.0 mi East 3.5 mph - N/A   Clear
11:14 AM 63.9 °F 49.8 °F 60% 30.02 in 10.0 mi ESE 4.6 mph - N/A   Clear
11:33 AM 62.2 °F 48.9 °F 62% 30.02 in 10.0 mi Calm Calm - N/A   Clear
11:53 AM 64.9 °F 47.7 °F 54% 30.03 in 10.0 mi SSE 4.6 mph - N/A   Clear
12:14 PM 65.8 °F 46.9 °F 50% 30.02 in 10.0 mi ESE 5.8 mph - N/A   Clear
12:33 PM 66.9 °F 46.6 °F 48% 30.02 in 10.0 mi East 4.6 mph - N/A   Clear
12:53 PM 68.0 °F 46.2 °F 46% 30.02 in 10.0 mi East 3.5 mph - N/A   Clear
1:14 PM 68.9 °F 45.5 °F 43% 30.01 in 10.0 mi ESE 4.6 mph - N/A   Clear
1:33 PM 69.3 °F 45.0 °F 42% 30.01 in 10.0 mi East 4.6 mph - N/A   Clear
1:53 PM 69.8 °F 43.7 °F 39% 30.00 in 10.0 mi East 3.5 mph - N/A   Clear
2:14 PM 70.3 °F 43.5 °F 38% 30.00 in 10.0 mi Calm Calm - N/A   Clear
2:33 PM 70.2 °F 44.2 °F 39% 29.99 in 10.0 mi ENE 4.6 mph - N/A   Clear
2:54 PM 70.5 °F 44.1 °F 39% 29.98 in 10.0 mi Calm Calm - N/A   Clear
3:13 PM 71.6 °F 43.0 °F 36% 29.98 in 10.0 mi NNE 5.8 mph - N/A   Clear
3:33 PM 71.4 °F 42.4 °F 35% 29.98 in 10.0 mi East 4.6 mph - N/A   Clear
3:54 PM 72.3 °F 43.7 °F 36% 29.98 in 10.0 mi ENE 3.5 mph - N/A   Clear
4:13 PM 71.2 °F 44.4 °F 38% 29.98 in 10.0 mi ESE 5.8 mph - N/A   Clear
4:33 PM 72.7 °F 44.1 °F 36% 29.98 in 10.0 mi NE 5.8 mph - N/A   Clear
4:54 PM 71.8 °F 43.9 °F 37% 29.98 in 10.0 mi ENE 5.8 mph - N/A   Clear
5:13 PM 71.1 °F 43.3 °F 37% 29.98 in 10.0 mi Calm Calm - N/A   Clear
5:33 PM 70.9 °F 44.4 °F 39% 29.98 in 10.0 mi East 5.8 mph - N/A   Clear
5:54 PM 69.8 °F 44.2 °F 40% 29.99 in 10.0 mi ENE 5.8 mph - N/A   Clear
6:13 PM 68.0 °F 44.4 °F 43% 29.99 in 10.0 mi ENE 3.5 mph - N/A   Clear
6:33 PM 64.9 °F 44.6 °F 48% 29.99 in 10.0 mi Calm Calm - N/A   Clear
6:54 PM 61.2 °F 46.4 °F 58% 29.99 in 10.0 mi Calm Calm - N/A   Clear
7:13 PM 60.8 °F 46.4 °F 59% 29.99 in 10.0 mi ENE 4.6 mph - N/A   Clear
7:33 PM 60.1 °F 47.8 °F 64% 30.00 in 10.0 mi NE 4.6 mph - N/A   Clear
7:54 PM 58.1 °F 48.7 °F 71% 30.00 in 10.0 mi ENE 3.5 mph - N/A   Clear
8:13 PM 57.2 °F 49.1 °F 74% 30.00 in 10.0 mi ENE 3.5 mph - N/A   Clear
8:33 PM 55.9 °F 49.1 °F 78% 30.00 in 10.0 mi Calm Calm - N/A   Clear
8:54 PM 51.6 °F 47.1 °F 85% 30.00 in 10.0 mi Calm Calm - N/A   Clear
9:13 PM 50.9 °F 47.5 °F 88% 30.00 in 10.0 mi Calm Calm - N/A   Clear
9:33 PM 49.6 °F 47.1 °F 91% 30.00 in 10.0 mi Calm Calm - N/A   Clear
9:54 PM 46.6 °F 44.1 °F 91% 30.01 in 10.0 mi Calm Calm - N/A   Clear
10:13 PM 45.1 °F 43.3 °F 93% 30.01 in 10.0 mi Calm Calm - N/A   Clear
10:33 PM 44.4 °F 43.5 °F 97% 30.01 in 10.0 mi Calm Calm - N/A   Clear
10:54 PM 44.1 °F 43.3 °F 97% 30.02 in 10.0 mi Calm Calm - N/A   Clear
11:13 PM 44.4 °F 43.3 °F 96% 30.02 in 10.0 mi Calm Calm - N/A   Clear
11:33 PM 41.5 °F 40.5 °F 96% 30.02 in 10.0 mi Calm Calm - N/A   Clear
11:54 PM 42.4 °F 42.1 °F 99% 30.03 in 7.0 mi Calm Calm - N/A   Clear